Time,TemperatureF,DewpointF,PressureIn,WindDirection,WindDirectionDegrees,WindSpeedMPH,WindSpeedGustMPH,Humidity,HourlyPrecipIn,Conditions,Clouds,dailyrainin,SoftwareType,DateUTC
2013-03-31 00:03:00,58.0,-99.9,30.21,NW,309,0.0,0.0,81,0.00,,,0.00,,2013-03-31 04:03:00,
2013-03-31 00:13:00,58.0,52.0,30.21,NW,309,0.0,0.0,81,0.00,,,0.00,,2013-03-31 04:13:00,
2013-03-31 00:23:00,59.0,53.0,30.20,NW,309,0.0,0.0,81,0.00,,,0.00,,2013-03-31 04:23:00,
2013-03-31 00:33:00,60.0,53.0,30.19,NW,309,0.0,0.0,78,0.00,,,0.00,,2013-03-31 04:33:00,
2013-03-31 00:42:00,60.0,53.0,30.19,NW,309,0.0,0.0,78,0.00,,,0.00,,2013-03-31 04:42:00,
2013-03-31 00:53:00,60.0,52.0,30.19,NW,309,0.0,0.0,76,0.00,,,0.00,,2013-03-31 04:53:00,
2013-03-31 01:02:00,60.0,52.0,30.19,NW,309,0.0,0.0,76,0.00,,,0.00,,2013-03-31 05:02:00,
2013-03-31 01:12:00,60.0,52.0,30.19,NW,309,0.0,0.0,76,0.00,,,0.00,,2013-03-31 05:12:00,
2013-03-31 01:22:00,60.0,52.0,30.19,NW,309,0.0,0.0,76,0.00,,,0.00,,2013-03-31 05:22:00,
2013-03-31 01:32:00,59.0,53.0,30.18,NW,309,0.0,0.0,80,0.00,,,0.00,,2013-03-31 05:32:00,
2013-03-31 01:42:00,59.0,53.0,30.18,NW,309,0.0,0.0,80,0.00,,,0.00,,2013-03-31 05:42:00,
2013-03-31 01:53:00,58.0,52.0,30.18,NW,309,0.0,0.0,80,0.00,,,0.00,,2013-03-31 05:53:00,
2013-03-31 02:02:00,58.0,53.0,30.18,NW,309,0.0,0.0,82,0.00,,,0.00,,2013-03-31 06:02:00,
2013-03-31 02:12:00,58.0,53.0,30.18,NW,309,0.0,0.0,82,0.00,,,0.00,,2013-03-31 06:12:00,
2013-03-31 02:22:00,59.0,54.0,30.18,NW,309,0.0,0.0,82,0.00,,,0.00,,2013-03-31 06:22:00,
2013-03-31 02:32:00,58.0,53.0,30.17,NW,309,0.0,0.0,82,0.00,,,0.00,,2013-03-31 06:32:00,
2013-03-31 02:42:00,58.0,53.0,30.17,NW,309,0.0,0.0,82,0.00,,,0.00,,2013-03-31 06:42:00,
2013-03-31 02:52:00,58.0,53.0,30.16,NW,309,0.0,0.0,82,0.00,,,0.00,,2013-03-31 06:52:00,
2013-03-31 03:02:00,57.0,52.0,30.16,NW,309,0.0,0.0,82,0.00,,,0.00,,2013-03-31 07:02:00,
2013-03-31 03:12:00,57.0,52.0,30.16,NW,309,0.0,0.0,82,0.00,,,0.00,,2013-03-31 07:12:00,
2013-03-31 03:22:00,57.0,52.0,30.15,NW,309,0.0,0.0,83,0.00,,,0.00,,2013-03-31 07:22:00,
2013-03-31 03:33:00,56.0,51.0,30.15,NW,309,0.0,0.0,83,0.00,,,0.00,,2013-03-31 07:33:00,
2013-03-31 03:43:00,56.0,51.0,30.15,NW,309,0.0,0.0,83,0.00,,,0.00,,2013-03-31 07:43:00,
2013-03-31 03:53:00,56.0,51.0,30.15,NW,309,0.0,0.0,84,0.00,,,0.00,,2013-03-31 07:53:00,
2013-03-31 04:02:00,56.0,51.0,30.15,NW,309,0.0,0.0,84,0.00,,,0.00,,2013-03-31 08:02:00,
2013-03-31 04:12:00,56.0,51.0,30.15,NW,309,0.0,0.0,84,0.00,,,0.00,,2013-03-31 08:12:00,
2013-03-31 04:22:00,56.0,51.0,30.15,NW,309,0.0,0.0,84,0.00,,,0.00,,2013-03-31 08:22:00,
2013-03-31 04:32:00,55.0,50.0,30.15,NW,309,0.0,0.0,84,0.00,,,0.00,,2013-03-31 08:32:00,
2013-03-31 04:42:00,55.0,50.0,30.15,NW,309,0.0,0.0,84,0.00,,,0.00,,2013-03-31 08:42:00,
2013-03-31 04:52:00,55.0,50.0,30.15,NW,309,0.0,0.0,84,0.00,,,0.00,,2013-03-31 08:52:00,
2013-03-31 05:02:00,54.0,49.0,30.15,NW,309,0.0,0.0,84,0.00,,,0.00,,2013-03-31 09:02:00,
2013-03-31 05:12:00,54.0,49.0,30.15,NW,309,0.0,0.0,84,0.00,,,0.00,,2013-03-31 09:12:00,
2013-03-31 05:22:00,54.0,49.0,30.15,NW,309,0.0,0.0,84,0.00,,,0.00,,2013-03-31 09:22:00,
2013-03-31 05:33:00,54.0,49.0,30.15,NW,309,0.0,0.0,84,0.00,,,0.00,,2013-03-31 09:33:00,
2013-03-31 05:42:00,54.0,49.0,30.15,NW,309,0.0,0.0,84,0.00,,,0.00,,2013-03-31 09:42:00,
2013-03-31 05:53:00,54.0,50.0,30.14,NW,309,0.0,0.0,85,0.00,,,0.00,,2013-03-31 09:53:00,
2013-03-31 06:03:00,54.0,50.0,30.14,NW,309,0.0,0.0,85,0.00,,,0.00,,2013-03-31 10:03:00,
2013-03-31 06:13:00,54.0,50.0,30.14,NW,309,0.0,0.0,85,0.00,,,0.00,,2013-03-31 10:13:00,
2013-03-31 06:24:00,54.0,50.0,30.14,NW,309,0.0,0.0,85,0.00,,,0.00,,2013-03-31 10:24:00,
2013-03-31 06:32:00,53.0,49.0,30.14,NW,309,0.0,0.0,85,0.00,,,0.00,,2013-03-31 10:32:00,
2013-03-31 06:42:00,53.0,49.0,30.14,NW,309,0.0,0.0,85,0.00,,,0.00,,2013-03-31 10:42:00,
2013-03-31 06:53:00,55.0,51.0,30.14,NW,309,0.0,0.0,85,0.00,,,0.00,,2013-03-31 10:53:00,
2013-03-31 07:02:00,55.0,51.0,30.14,NW,309,0.0,0.0,85,0.00,,,0.00,,2013-03-31 11:02:00,
2013-03-31 07:12:00,55.0,51.0,30.14,NW,309,0.0,0.0,85,0.00,,,0.00,,2013-03-31 11:12:00,
2013-03-31 07:23:00,54.0,50.0,30.14,NW,309,0.0,0.0,85,0.00,,,0.00,,2013-03-31 11:23:00,
2013-03-31 07:32:00,54.0,50.0,30.14,NW,309,0.0,0.0,85,0.00,,,0.00,,2013-03-31 11:32:00,
2013-03-31 07:42:00,54.0,50.0,30.14,NW,309,0.0,0.0,85,0.00,,,0.00,,2013-03-31 11:42:00,
2013-03-31 07:53:00,54.0,50.0,30.15,NW,309,0.0,0.0,85,0.00,,,0.00,,2013-03-31 11:53:00,
2013-03-31 08:03:00,55.0,51.0,30.15,NW,309,0.0,0.0,86,0.00,,,0.00,,2013-03-31 12:03:00,
2013-03-31 08:12:00,55.0,51.0,30.15,NW,309,0.0,0.0,86,0.00,,,0.00,,2013-03-31 12:12:00,
2013-03-31 08:22:00,56.0,52.0,30.16,NW,309,0.0,0.0,85,0.00,,,0.00,,2013-03-31 12:22:00,
2013-03-31 08:33:00,58.0,54.0,30.16,NW,309,0.0,0.0,85,0.00,,,0.00,,2013-03-31 12:33:00,
2013-03-31 08:42:00,58.0,54.0,30.16,NW,309,0.0,0.0,85,0.00,,,0.00,,2013-03-31 12:42:00,
2013-03-31 08:53:00,60.0,55.0,30.16,NW,309,0.0,0.0,84,0.00,,,0.00,,2013-03-31 12:53:00,
2013-03-31 09:02:00,62.0,57.0,30.16,NW,309,0.0,0.0,84,0.00,,,0.00,,2013-03-31 13:02:00,
2013-03-31 09:12:00,62.0,57.0,30.16,NW,309,0.0,0.0,84,0.00,,,0.00,,2013-03-31 13:12:00,
2013-03-31 09:22:00,65.0,59.0,30.17,West,276,0.0,1.0,80,0.00,,,0.00,,2013-03-31 13:22:00,
2013-03-31 09:32:00,67.0,59.0,30.17,SSE,150,0.0,2.0,76,0.00,,,0.00,,2013-03-31 13:32:00,
2013-03-31 09:42:00,67.0,59.0,30.17,SSE,150,0.0,2.0,76,0.00,,,0.00,,2013-03-31 13:42:00,
2013-03-31 09:53:00,68.0,59.0,30.17,South,175,3.0,8.0,72,0.00,,,0.00,,2013-03-31 13:53:00,
2013-03-31 10:02:00,70.0,60.0,30.17,SE,134,5.0,10.0,71,0.00,,,0.00,,2013-03-31 14:02:00,
2013-03-31 10:12:00,70.0,60.0,30.17,SE,134,5.0,10.0,71,0.00,,,0.00,,2013-03-31 14:12:00,
2013-03-31 10:22:00,70.0,60.0,30.17,SSE,154,1.0,8.0,70,0.00,,,0.00,,2013-03-31 14:22:00,
2013-03-31 10:32:00,72.0,60.0,30.16,SSE,152,3.0,9.0,67,0.00,,,0.00,,2013-03-31 14:32:00,
2013-03-31 10:42:00,72.0,60.0,30.16,SSE,152,3.0,9.0,67,0.00,,,0.00,,2013-03-31 14:42:00,
2013-03-31 10:52:00,73.0,61.0,30.16,South,181,3.0,7.0,65,0.00,,,0.00,,2013-03-31 14:52:00,
2013-03-31 11:03:00,74.0,61.0,30.16,SSW,193,7.0,10.0,63,0.00,,,0.00,,2013-03-31 15:03:00,
2013-03-31 11:13:00,74.0,61.0,30.16,SSW,193,7.0,10.0,63,0.00,,,0.00,,2013-03-31 15:13:00,
2013-03-31 11:22:00,74.0,61.0,30.16,South,179,1.0,11.0,63,0.00,,,0.00,,2013-03-31 15:22:00,
2013-03-31 11:33:00,76.0,60.0,30.16,SW,229,3.0,6.0,58,0.00,,,0.00,,2013-03-31 15:33:00,
2013-03-31 11:43:00,76.0,60.0,30.16,SW,229,3.0,6.0,58,0.00,,,0.00,,2013-03-31 15:43:00,
2013-03-31 11:54:00,75.0,59.0,30.16,WSW,248,5.0,9.0,57,0.00,,,0.00,,2013-03-31 15:54:00,
2013-03-31 12:03:00,76.0,59.0,30.15,SSW,200,7.0,15.0,55,0.00,,,0.00,,2013-03-31 16:03:00,
2013-03-31 12:13:00,76.0,59.0,30.15,SSW,200,7.0,15.0,55,0.00,,,0.00,,2013-03-31 16:13:00,
2013-03-31 12:23:00,77.0,60.0,30.15,SSE,155,1.0,9.0,55,0.00,,,0.00,,2013-03-31 16:23:00,
2013-03-31 12:33:00,78.0,60.0,30.14,South,171,3.0,6.0,54,0.00,,,0.00,,2013-03-31 16:33:00,
2013-03-31 12:43:00,78.0,60.0,30.14,South,171,3.0,6.0,54,0.00,,,0.00,,2013-03-31 16:43:00,
2013-03-31 12:53:00,77.0,59.0,30.14,SSW,207,3.0,11.0,54,0.00,,,0.00,,2013-03-31 16:53:00,
2013-03-31 13:03:00,78.0,59.0,30.14,WSW,243,5.0,13.0,52,0.00,,,0.00,,2013-03-31 17:03:00,
2013-03-31 13:12:00,78.0,59.0,30.14,WSW,243,5.0,13.0,52,0.00,,,0.00,,2013-03-31 17:12:00,
2013-03-31 13:23:00,79.0,59.0,30.13,South,170,3.0,7.0,50,0.00,,,0.00,,2013-03-31 17:23:00,
2013-03-31 13:32:00,79.0,57.0,30.13,WSW,250,3.0,9.0,47,0.00,,,0.00,,2013-03-31 17:32:00,
2013-03-31 13:43:00,79.0,57.0,30.13,WSW,250,3.0,9.0,47,0.00,,,0.00,,2013-03-31 17:43:00,
2013-03-31 13:52:00,80.0,58.0,30.12,SW,234,1.0,10.0,47,0.00,,,0.00,,2013-03-31 17:52:00,
2013-03-31 14:03:00,80.0,58.0,30.11,WSW,243,3.0,11.0,47,0.00,,,0.00,,2013-03-31 18:03:00,
2013-03-31 14:13:00,80.0,58.0,30.11,WSW,243,3.0,11.0,47,0.00,,,0.00,,2013-03-31 18:13:00,
2013-03-31 14:22:00,80.0,56.0,30.11,WNW,285,4.0,12.0,44,0.00,,,0.00,,2013-03-31 18:22:00,
2013-03-31 14:32:00,80.0,60.0,30.10,WSW,256,4.0,13.0,50,0.00,,,0.00,,2013-03-31 18:32:00,
2013-03-31 14:42:00,80.0,60.0,30.10,WSW,256,4.0,13.0,50,0.00,,,0.00,,2013-03-31 18:42:00,
2013-03-31 14:53:00,80.0,60.0,30.09,SSE,167,6.0,13.0,51,0.00,,,0.00,,2013-03-31 18:53:00,
2013-03-31 15:03:00,80.0,60.0,30.09,WSW,250,3.0,15.0,50,0.00,,,0.00,,2013-03-31 19:03:00,
2013-03-31 15:12:00,80.0,60.0,30.09,WSW,250,3.0,15.0,50,0.00,,,0.00,,2013-03-31 19:12:00,
2013-03-31 15:22:00,80.0,60.0,30.09,WSW,248,5.0,15.0,51,0.00,,,0.00,,2013-03-31 19:22:00,
2013-03-31 15:33:00,80.0,60.0,30.08,WSW,245,4.0,12.0,50,0.00,,,0.00,,2013-03-31 19:33:00,
2013-03-31 15:43:00,80.0,60.0,30.08,WSW,245,4.0,12.0,50,0.00,,,0.00,,2013-03-31 19:43:00,
2013-03-31 15:54:00,80.0,59.0,30.07,WSW,253,5.0,13.0,48,0.00,,,0.00,,2013-03-31 19:54:00,
2013-03-31 16:03:00,80.0,59.0,30.06,WSW,248,4.0,14.0,49,0.00,,,0.00,,2013-03-31 20:03:00,
2013-03-31 16:12:00,80.0,59.0,30.06,WSW,248,4.0,14.0,49,0.00,,,0.00,,2013-03-31 20:12:00,
2013-03-31 16:23:00,80.0,57.0,30.06,WSW,248,7.0,13.0,45,0.00,,,0.00,,2013-03-31 20:23:00,
2013-03-31 16:33:00,79.0,58.0,30.06,SW,229,6.0,17.0,49,0.00,,,0.00,,2013-03-31 20:33:00,
2013-03-31 16:43:00,79.0,58.0,30.06,SW,229,6.0,17.0,49,0.00,,,0.00,,2013-03-31 20:43:00,
2013-03-31 16:53:00,79.0,60.0,30.05,West,264,4.0,17.0,52,0.00,,,0.00,,2013-03-31 20:53:00,
2013-03-31 17:03:00,79.0,60.0,30.05,WSW,240,4.0,13.0,52,0.00,,,0.00,,2013-03-31 21:03:00,
2013-03-31 17:13:00,79.0,60.0,30.05,WSW,240,4.0,13.0,52,0.00,,,0.00,,2013-03-31 21:13:00,
2013-03-31 17:22:00,79.0,61.0,30.05,West,260,4.0,10.0,55,0.00,,,0.00,,2013-03-31 21:22:00,
2013-03-31 17:34:00,78.0,61.0,30.05,WSW,252,4.0,12.0,56,0.00,,,0.00,,2013-03-31 21:34:00,
2013-03-31 17:43:00,78.0,61.0,30.05,WSW,252,4.0,12.0,56,0.00,,,0.00,,2013-03-31 21:43:00,
2013-03-31 17:54:00,78.0,59.0,30.05,WSW,255,4.0,11.0,52,0.00,,,0.00,,2013-03-31 21:54:00,
2013-03-31 18:04:00,78.0,59.0,30.04,West,264,3.0,13.0,53,0.00,,,0.00,,2013-03-31 22:04:00,
2013-03-31 18:13:00,78.0,59.0,30.04,West,264,3.0,13.0,53,0.00,,,0.00,,2013-03-31 22:13:00,
2013-03-31 18:23:00,77.0,58.0,30.04,WSW,245,4.0,17.0,52,0.00,,,0.00,,2013-03-31 22:23:00,
2013-03-31 18:33:00,77.0,58.0,30.04,West,276,4.0,13.0,52,0.00,,,0.00,,2013-03-31 22:33:00,
2013-03-31 18:43:00,77.0,58.0,30.04,West,276,4.0,13.0,52,0.00,,,0.00,,2013-03-31 22:43:00,
2013-03-31 18:53:00,76.0,60.0,30.04,West,264,2.0,11.0,57,0.00,,,0.00,,2013-03-31 22:53:00,
2013-03-31 19:03:00,76.0,61.0,30.04,West,279,3.0,9.0,59,0.00,,,0.00,,2013-03-31 23:03:00,
2013-03-31 19:13:00,76.0,61.0,30.04,West,279,3.0,9.0,59,0.00,,,0.00,,2013-03-31 23:13:00,
2013-03-31 19:22:00,75.0,61.0,30.04,WSW,250,2.0,9.0,61,0.00,,,0.00,,2013-03-31 23:22:00,
2013-03-31 19:32:00,74.0,60.0,30.05,WSW,255,1.0,8.0,62,0.00,,,0.00,,2013-03-31 23:32:00,
2013-03-31 19:42:00,74.0,60.0,30.05,WSW,255,1.0,8.0,62,0.00,,,0.00,,2013-03-31 23:42:00,
2013-03-31 19:53:00,74.0,61.0,30.04,WSW,257,0.0,7.0,63,0.00,,,0.00,,2013-03-31 23:53:00,
2013-03-31 20:02:00,73.0,61.0,30.05,West,270,3.0,10.0,66,0.00,,,0.00,,2013-04-01 00:02:00,
2013-03-31 20:13:00,73.0,61.0,30.05,West,270,3.0,10.0,66,0.00,,,0.00,,2013-04-01 00:13:00,
2013-03-31 20:22:00,72.0,61.0,30.04,WSW,248,1.0,6.0,68,0.00,,,0.00,,2013-04-01 00:22:00,
2013-03-31 20:32:00,72.0,61.0,30.05,SW,225,0.0,5.0,69,0.00,,,0.00,,2013-04-01 00:32:00,
2013-03-31 20:43:00,72.0,61.0,30.05,SW,225,0.0,5.0,69,0.00,,,0.00,,2013-04-01 00:43:00,
2013-03-31 20:53:00,71.0,61.0,30.04,SW,221,0.0,0.0,70,0.00,,,0.00,,2013-04-01 00:53:00,
2013-03-31 21:03:00,71.0,61.0,30.04,SW,221,0.0,0.0,71,0.00,,,0.00,,2013-04-01 01:03:00,
2013-03-31 21:12:00,71.0,61.0,30.04,SW,221,0.0,0.0,71,0.00,,,0.00,,2013-04-01 01:12:00,
2013-03-31 21:23:00,70.0,61.0,30.05,SW,221,0.0,0.0,72,0.00,,,0.00,,2013-04-01 01:23:00,
2013-03-31 21:32:00,70.0,61.0,30.04,SW,221,0.0,0.0,73,0.00,,,0.00,,2013-04-01 01:32:00,
2013-03-31 21:42:00,70.0,61.0,30.04,SW,221,0.0,0.0,73,0.00,,,0.00,,2013-04-01 01:42:00,
2013-03-31 21:53:00,69.0,60.0,30.05,SW,221,0.0,0.0,74,0.00,,,0.00,,2013-04-01 01:53:00,
2013-03-31 22:03:00,67.0,59.0,30.05,SW,221,0.0,0.0,76,0.00,,,0.00,,2013-04-01 02:03:00,
2013-03-31 22:13:00,67.0,59.0,30.05,SW,221,0.0,0.0,76,0.00,,,0.00,,2013-04-01 02:13:00,
2013-03-31 22:23:00,66.0,59.0,30.05,SW,221,0.0,0.0,78,0.00,,,0.00,,2013-04-01 02:23:00,
2013-03-31 22:33:00,66.0,60.0,30.05,SW,221,0.0,0.0,80,0.00,,,0.00,,2013-04-01 02:33:00,
2013-03-31 22:42:00,66.0,60.0,30.05,SW,221,0.0,0.0,80,0.00,,,0.00,,2013-04-01 02:42:00,
2013-03-31 22:53:00,65.0,59.0,30.06,SW,221,0.0,0.0,81,0.00,,,0.00,,2013-04-01 02:53:00,
2013-03-31 23:03:00,64.0,58.0,30.06,SW,221,0.0,0.0,82,0.00,,,0.00,,2013-04-01 03:03:00,
2013-03-31 23:12:00,64.0,58.0,30.06,SW,221,0.0,0.0,82,0.00,,,0.00,,2013-04-01 03:12:00,
2013-03-31 23:23:00,63.0,58.0,30.06,SW,221,0.0,0.0,83,0.00,,,0.00,,2013-04-01 03:23:00,
2013-03-31 23:34:00,63.0,58.0,30.06,SW,221,0.0,0.0,83,0.00,,,0.00,,2013-04-01 03:34:00,
2013-03-31 23:43:00,63.0,58.0,30.06,SW,221,0.0,0.0,83,0.00,,,0.00,,2013-04-01 03:43:00,
2013-03-31 23:53:00,63.0,58.0,30.06,SW,221,0.0,0.0,83,0.00,,,0.00,,2013-04-01 03:53:00,